Wind_Speed
5 5 6 6 6 6 5 5 5 5 6 6 7 6 6 6 6 6 6 6 6 6 6 7 7 7 6 6 5 5 5 5 4 4 5 5 5 5 5 5 5 6 6
3 4 4 5 5 5 5 6 5 6 6 7 8 7 7 7 6 6 7 7 6 6 7 7 7 7 8 8 7 7 6 6 6 6 6 6 7 7 7 7 7 7 7
3 3 3 4 4 4 5 6 6 6 6 7 8 8 8 8 8 8 8 8 8 8 7 7 8 8 8 9 8 8 8 8 7 7 7 7 8 8 8 7 8 8 8
3 2 3 3 3 3 4 5 6 6 6 7 7 7 8 9 9 9 9 9 9 9 9 9 8 9 9 9 9 9 8 9 9 8 9 9 9 9 9 8 9 9 8
3 2 3 3 3 4 4 6 6 7 7 8 8 8 9 9 9 10 10 11 11 10 10 10 10 10 10 10 10 10 9 9 10 10 10 10 10 10 10 9 9 9 9
2 3 3 4 4 4 5 5 6 7 7 8 8 9 10 10 10 11 10 11 11 11 11 11 10 10 10 11 11 11 11 11 11 11 12 12 11 11 11 11 10 10 11
0 2 3 4 4 4 5 5 5 6 7 8 9 10 10 11 11 11 11 11 11 12 12 12 12 12 12 12 12 13 13 12 12 13 12 12 12 12 11 12 12 11 11
1 2 2 3 3 4 5 6 6 7 8 9 10 10 11 11 12 12 12 12 12 12 12 12 13 13 13 13 13 13 13 13 14 13 13 13 13 13 13 13 13 12 13
2 2 3 3 4 5 6 6 8 8 8 9 9 10 10 11 12 12 12 13 12 12 12 12 12 13 14 14 14 14 14 14 13 13 13 14 14 13 13 14 14 14 15
5 4 4 5 5 6 6 7 7 8 8 8 9 10 10 10 11 11 12 13 13 13 13 12 12 13 13 14 14 14 14 14 14 15 15 15 15 15 15 16 16 16 16
6 6 6 6 6 7 8 8 8 9 9 10 10 10 10 10 11 11 11 12 13 13 14 13 12 12 12 12 13 14 14 14 15 15 16 16 16 16 16 16 16 17 17
7 7 7 8 8 8 9 9 9 11 11 12 11 11 11 11 11 12 12 12 13 13 13 13 13 13 13 13 14 14 15 16 16 16 16 17 17 17 17 17 18 19 19
8 8 9 9 10 10 10 11 11 12 12 13 12 12 12 12 13 13 13 13 13 13 14 14 14 14 15 14 15 15 16 16 17 17 18 18 18 18 19 19 19 20 20
10 10 11 11 11 11 12 12 12 12 12 13 13 13 13 13 13 14 14 14 14 14 14 15 16 16 16 16 16 17 17 18 18 19 19 19 19 20 20 20 20 20 21
11 11 11 12 12 12 12 12 12 12 13 13 13 13 14 14 15 15 15 15 15 16 16 17 17 17 18 18 18 18 18 19 19 20 20 20 21 21 22 22 22 22 22
13 12 12 13 13 13 13 13 13 14 14 14 14 14 15 15 15 16 16 16 17 17 18 19 19 19 19 19 19 19 19 19 20 21 22 22 23 23 23 23 23 23 23
15 15 14 14 14 15 15 15 15 15 15 16 16 16 17 17 18 18 18 18 18 19 19 20 20 21 21 21 21 21 21 20 21 22 22 23 24 24 25 25 25 25 25
17 17 17 17 17 17 17 17 18 18 18 18 18 18 19 20 20 20 20 20 21 21 21 21 22 22 23 23 23 23 23 23 23 23 23 24 25 25 25 26 26 26 26
18 18 18 18 19 19 19 20 20 20 20 20 20 20 21 21 22 23 23 23 23 23 23 23 23 24 24 25 25 26 26 26 26 25 25 26 26 26 26 26 27 27 27
20 19 20 20 21 21 21 22 22 22 22 22 22 22 23 23 23 24 24 25 25 25 25 25 25 26 27 27 27 27 28 28 28 28 28 28 28 27 27 27 28 28 28
24 23 23 22 23 23 23 24 23 23 23 24 25 25 25 25 26 26 26 27 26 26 26 26 27 27 28 29 29 29 30 30 30 30 30 31 30 30 29 29 30 30 30
24 24 23 23 24 24 24 25 25 25 25 26 26 27 27 28 28 28 27 28 28 28 27 27 28 29 29 29 29 31 31 32 32 32 31 32 32 31 32 31 31 32 32
24 25 25 25 25 25 24 25 26 27 27 28 28 28 29 29 30 30 29 29 28 28 28 29 29 30 30 30 30 30 31 31 32 32 33 33 33 33 33 33 33 33 33
27 27 27 27 26 26 26 27 28 29 29 29 29 29 30 30 30 31 32 31 31 30 30 30 30 31 32 32 32 32 33 32 33 33 34 33 33 34 34 34 34 34 33
28 29 29 29 29 28 29 30 31 31 32 32 32 32 32 32 32 32 32 32 32 31 31 31 31 32 34 34 34 34 34 34 34 34 34 34 34 34 34 34 34 34 34
30 31 31 31 30 30 31 31 32 33 33 33 33 33 34 34 34 33 32 32 32 32 33 33 33 33 34 35 35 35 35 35 35 34 35 35 35 35 34 34 34 34 35
Wind_Direction
149 163 175 176 181 190 198 197 198 202 208 212 216 218 226 233 232 233 234 230 230 233 237 244 248 253 248 246 251 252 252 254 260 267 270 276 287 293 296 300 295 296 294
145 164 177 187 195 201 206 209 215 221 224 228 231 230 233 234 244 247 245 240 240 240 241 246 249 249 250 251 255 260 263 262 268 271 274 277 284 290 293 291 292 291 288
157 170 185 189 198 210 221 225 228 225 228 231 235 238 244 244 248 252 244 241 244 245 248 253 252 251 251 253 255 262 265 265 269 272 272 275 282 285 290 289 291 290 286
169 175 178 193 211 228 237 235 232 229 233 237 239 247 250 247 250 251 246 244 248 250 254 257 254 256 257 258 261 264 263 266 269 272 272 274 279 281 283 288 289 288 288
178 197 218 214 238 242 242 241 245 248 246 246 250 254 256 253 254 254 248 244 248 252 256 256 257 260 260 259 263 264 264 268 271 272 273 275 278 278 280 286 285 284 283
192 219 238 235 239 248 244 246 259 258 253 250 253 257 257 260 260 257 251 247 249 251 254 257 258 259 260 260 261 263 266 269 269 271 273 276 277 279 280 280 280 281 282
253 250 247 240 246 254 247 249 261 266 261 255 257 259 259 262 260 257 255 252 252 252 257 259 261 261 262 262 261 264 269 269 269 271 275 275 277 278 282 281 282 280 281
319 279 264 259 267 268 268 261 265 270 269 267 262 259 261 261 262 259 257 255 254 255 258 260 263 263 263 263 265 266 268 270 269 272 273 275 277 277 278 281 283 283 281
320 293 270 265 275 283 276 272 273 271 273 272 269 263 262 258 261 260 258 255 256 256 257 261 262 262 263 264 266 269 269 269 270 269 272 274 275 277 277 279 280 281 280
301 290 283 278 277 274 278 278 277 277 274 274 273 271 268 263 258 258 259 258 257 258 260 263 265 266 265 266 268 270 271 270 270 271 273 274 274 274 275 278 279 280 280
297 284 279 283 283 275 275 278 275 276 276 277 278 276 273 270 264 260 260 260 261 261 262 263 266 269 269 268 269 270 271 271 271 272 273 273 274 275 276 276 279 282 282
298 286 279 280 284 284 282 281 279 277 274 274 274 276 272 271 266 263 263 263 262 265 266 265 265 266 267 268 269 270 270 270 270 272 273 274 275 276 277 277 279 280 282
290 287 278 277 279 282 283 280 281 282 281 277 275 275 272 270 267 266 268 267 267 268 269 269 269 269 268 269 269 271 272 271 271 271 273 273 274 277 277 278 280 281 282
289 287 277 274 275 280 282 281 279 280 283 280 277 274 272 272 268 266 268 268 268 269 269 269 268 268 268 268 270 271 272 272 272 271 272 273 273 275 278 279 281 282 283
293 290 284 278 278 279 280 284 282 282 281 279 277 275 273 272 269 266 267 268 268 268 268 268 267 267 267 268 269 272 273 273 273 273 273 273 274 275 278 280 281 283 284
290 291 287 285 279 278 280 282 282 281 281 278 277 277 277 273 269 268 269 270 270 268 267 268 268 268 268 268 269 271 273 274 275 276 276 275 276 276 278 278 281 282 283
284 284 285 287 282 279 280 281 281 280 279 278 277 277 276 274 272 270 270 272 272 270 268 268 269 269 269 269 271 272 273 274 276 277 279 279 279 278 277 278 280 282 281
284 283 284 283 283 282 281 280 279 279 278 278 276 275 276 275 273 272 271 272 272 271 270 268 269 270 269 269 270 270 271 273 276 277 279 280 280 280 279 279 281 281 281
285 284 283 283 282 281 280 280 278 276 276 277 276 276 276 276 275 273 271 271 272 271 270 270 271 271 270 270 271 271 271 273 275 276 277 279 281 282 281 279 280 280 280
284 283 283 284 283 281 281 282 280 277 275 276 277 276 277 277 278 275 273 272 272 272 271 271 271 271 271 271 270 271 272 273 276 277 277 277 278 279 279 281 280 279 280
282 280 280 281 282 283 283 283 281 278 275 275 275 275 276 277 279 277 274 273 272 273 272 271 271 272 272 272 272 271 272 274 275 277 278 277 277 277 279 279 280 281 281
281 278 280 280 282 282 282 281 279 276 276 276 275 275 276 277 277 278 275 273 272 272 272 273 273 273 273 274 274 273 273 274 276 276 278 279 277 277 278 279 280 281 281
280 280 280 280 279 280 281 280 279 277 277 277 277 277 277 276 275 276 276 276 274 272 271 273 274 274 273 274 275 275 275 276 276 277 279 279 277 277 278 278 279 280 280
280 280 282 282 280 279 280 280 278 278 279 278 278 278 278 278 278 277 276 277 276 274 274 274 275 275 274 273 274 274 274 274 276 277 278 279 278 278 277 277 278 278 278
280 281 282 280 280 279 278 277 277 277 277 278 277 277 278 278 277 276 275 274 275 276 276 275 276 276 275 274 275 275 275 275 275 276 278 279 279 278 277 276 276 276 277
279 280 281 279 279 278 277 277 277 277 277 277 276 276 278 277 277 276 275 275 275 276 277 276 276 277 276 275 274 275 276 276 276 276 277 278 278 277 275 276 275 275 275
Height
5879 5880 5881 5882 5883 5885 5886 5887 5888 5889 5889 5890 5891 5892 5892 5893 5893 5894 5894 5895 5896 5896 5897 5897 5898 5898 5898 5898 5898 5899 5899 5899 5899 5900 5900 5900 5900 5900 5899 5899 5899 5899 5899
5879 5880 5881 5882 5883 5885 5885 5886 5887 5888 5889 5890 5890 5891 5891 5892 5893 5893 5893 5894 5894 5895 5895 5896 5896 5896 5897 5897 5897 5898 5898 5898 5898 5898 5898 5898 5898 5898 5898 5898 5898 5897 5897
5880 5880 5881 5882 5883 5884 5885 5885 5886 5887 5888 5888 5889 5890 5890 5891 5891 5892 5892 5892 5893 5893 5894 5894 5895 5895 5895 5895 5896 5896 5896 5897 5897 5897 5897 5897 5897 5897 5897 5896 5896 5896 5895
5880 5881 5882 5882 5883 5884 5884 5885 5885 5886 5887 5887 5888 5888 5889 5889 5890 5890 5890 5891 5891 5892 5892 5893 5893 5893 5893 5894 5894 5894 5895 5895 5895 5895 5895 5895 5895 5895 5895 5894 5894 5894 5894
5880 5881 5881 5882 5883 5883 5883 5884 5885 5885 5885 5886 5886 5887 5887 5888 5888 5888 5888 5889 5889 5890 5890 5891 5891 5892 5892 5892 5892 5892 5893 5893 5893 5893 5893 5893 5893 5893 5893 5892 5892 5892 5892
5880 5881 5881 5882 5882 5882 5883 5883 5883 5884 5884 5884 5885 5885 5885 5886 5886 5886 5886 5887 5887 5888 5888 5889 5889 5889 5890 5890 5890 5890 5891 5891 5891 5891 5891 5891 5891 5890 5890 5890 5890 5890 5889
5880 5881 5881 5881 5881 5882 5882 5882 5882 5882 5882 5883 5883 5883 5884 5884 5884 5884 5884 5885 5885 5885 5886 5886 5887 5887 5887 5888 5888 5888 5888 5888 5888 5888 5888 5888 5888 5888 5888 5888 5887 5887 5887
5880 5880 5881 5881 5881 5881 5881 5881 5881 5881 5881 5881 5881 5882 5882 5882 5881 5882 5882 5882 5882 5883 5883 5883 5884 5884 5884 5885 5885 5885 5885 5885 5885 5885 5885 5885 5885 5885 5885 5885 5884 5884 5884
5880 5879 5879 5879 5879 5880 5880 5880 5880 5879 5879 5879 5879 5879 5879 5879 5879 5879 5879 5880 5880 5880 5880 5881 5881 5881 5881 5882 5882 5882 5882 5882 5882 5882 5882 5882 5882 5882 5881 5881 5881 5881 5881
5879 5878 5878 5878 5878 5878 5878 5878 5878 5878 5877 5877 5877 5877 5877 5876 5876 5877 5877 5877 5877 5878 5878 5878 5878 5878 5878 5878 5879 5879 5879 5879 5879 5879 5879 5879 5878 5878 5878 5878 5878 5877 5877
5878 5877 5877 5877 5877 5876 5876 5876 5876 5876 5875 5875 5875 5874 5874 5874 5874 5874 5875 5875 5875 5875 5875 5875 5875 5875 5875 5875 5875 5875 5875 5875 5875 5875 5875 5875 5875 5874 5874 5874 5874 5873 5873
5876 5876 5876 5876 5875 5874 5874 5873 5873 5873 5873 5872 5872 5872 5871 5871 5871 5871 5872 5872 5872 5872 5871 5871 5871 5871 5871 5871 5871 5871 5871 5871 5871 5871 5871 5871 5871 5870 5870 5870 5869 5869 5869
5875 5874 5874 5873 5873 5872 5871 5871 5871 5870 5870 5869 5869 5869 5868 5868 5868 5868 5869 5869 5868 5868 5868 5867 5867 5867 5867 5867 5867 5867 5867 5867 5867 5867 5867 5867 5867 5866 5866 5865 5865 5865 5864
5872 5872 5871 5871 5870 5869 5869 5868 5868 5867 5867 5866 5866 5865 5865 5865 5865 5865 5865 5865 5865 5865 5864 5864 5863 5863 5863 5863 5863 5863 5863 5863 5863 5863 5863 5862 5862 5862 5861 5861 5860 5860 5859
5870 5869 5868 5868 5867 5867 5866 5865 5864 5864 5863 5863 5862 5862 5861 5861 5861 5861 5861 5860 5861 5861 5861 5860 5859 5859 5858 5858 5858 5858 5858 5857 5858 5857 5857 5857 5857 5856 5856 5855 5855 5854 5854
5867 5866 5865 5864 5864 5863 5862 5862 5861 5860 5860 5859 5859 5858 5858 5857 5857 5856 5856 5856 5856 5856 5856 5855 5854 5854 5853 5853 5853 5853 5852 5852 5852 5852 5852 5851 5851 5850 5850 5849 5849 5848 5848
5863 5862 5861 5860 5859 5859 5858 5858 5857 5856 5856 5855 5854 5854 5853 5853 5852 5851 5851 5851 5850 5850 5850 5850 5849 5849 5848 5848 5848 5847 5847 5847 5846 5846 5846 5845 5845 5844 5844 5843 5843 5842 5841
5858 5857 5857 5856 5855 5854 5853 5853 5852 5852 5851 5850 5850 5849 5848 5847 5847 5846 5846 5845 5845 5844 5844 5844 5844 5843 5843 5842 5842 5842 5841 5841 5841 5840 5840 5839 5838 5838 5837 5837 5836 5835 5834
5853 5852 5851 5850 5850 5849 5848 5847 5846 5846 5845 5845 5844 5843 5843 5842 5841 5840 5839 5839 5838 5838 5838 5838 5838 5837 5837 5836 5836 5835 5835 5835 5834 5833 5833 5832 5832 5831 5830 5830 5829 5828 5827
5847 5846 5845 5844 5844 5843 5842 5841 5840 5839 5839 5838 5838 5837 5836 5835 5834 5833 5833 5832 5831 5831 5831 5831 5831 5830 5830 5829 5829 5828 5828 5828 5827 5826 5825 5825 5824 5823 5823 5822 5822 5821 5820
5840 5839 5839 5838 5837 5837 5836 5835 5834 5833 5832 5832 5831 5830 5830 5829 5828 5826 5825 5825 5824 5823 5823 5823 5823 5823 5822 5822 5821 5821 5820 5820 5819 5819 5818 5817 5816 5815 5815 5814 5813 5813 5812
5833 5832 5832 5831 5831 5830 5829 5828 5827 5826 5825 5825 5824 5823 5822 5821 5820 5819 5818 5817 5816 5816 5816 5815 5815 5815 5815 5814 5813 5812 5812 5812 5811 5811 5809 5808 5807 5807 5806 5805 5804 5803 5803
5826 5825 5825 5824 5823 5822 5821 5820 5819 5819 5818 5817 5816 5815 5814 5813 5812 5811 5810 5808 5808 5807 5808 5807 5807 5807 5806 5806 5805 5804 5803 5802 5802 5801 5800 5799 5798 5797 5797 5796 5795 5794 5794
5819 5818 5817 5816 5815 5814 5813 5812 5811 5810 5810 5809 5808 5807 5806 5805 5803 5802 5801 5800 5799 5799 5798 5798 5798 5797 5797 5796 5796 5795 5794 5793 5792 5791 5790 5790 5788 5788 5787 5786 5786 5785 5784
5811 5810 5809 5808 5806 5805 5804 5803 5802 5801 5800 5800 5799 5798 5797 5796 5794 5793 5792 5792 5791 5790 5789 5788 5788 5787 5787 5786 5785 5785 5784 5783 5783 5781 5780 5780 5779 5778 5777 5777 5776 5775 5774
5802 5801 5800 5798 5797 5796 5794 5793 5792 5791 5791 5790 5789 5788 5787 5786 5785 5783 5783 5782 5781 5781 5780 5779 5778 5777 5776 5775 5775 5775 5774 5773 5772 5771 5770 5769 5768 5767 5767 5767 5766 5765 5764